Location: Colonia Mina de C?rbuni
(46.1667°N, 22.7167°E)
Time: 06:18:29
(UTC+00:00)

Lacrosse 5 - Pass Details

Date: 04 February 2023
Orbit: 714 x 724 km, 57.0° (Epoch: 09 March)

Event Time Altitude Azimuth Distance (km) Brightness Sun altitude
Rises 17:35:21 0° 252° (WSW) 3,130 6.5 -20.6°
Reaches altitude 10° 17:37:50 10° 259° (W) 2,213 5.5 -21.0°
Maximum altitude 17:42:43 44° 332° (NNW) 996 2.7 -21.8°
Enters shadow 17:44:52 29° 25° (NNE) 1,327 3.0 -22.2°
